Skip Page Navigation
NASA JPL Caltech
NASA Logo - Jet Propulsion Laboratory + View the NASA Portal
+ Near-Earth Object (NEO) Program
Search JPL
JPL Home Earth Solar System Stars & Galaxies Technology
JPL Solar System Dynamics
BODIES ORBITS EPHEMERIDES TOOLS PHYSICAL DATA DISCOVERY FAQ SITE MAP
JPL Small-Body Database Browser
Search: [ help ]  
13136 (1994 UJ1)
Classification: Main-belt Asteroid          SPK-ID: 2013136
Ephemeris | Orbit Diagram | Orbital Elements | Physical Parameters | Discovery Circumstances ]

[ show orbit diagram ]
Orbital Elements at Epoch 2456800.5 (2014-May-23.0) TDB
Reference: JPL 4 (heliocentric ecliptic J2000)
 Element Value Uncertainty (1-sigma)   Units 
e .181709609277435 5.8752e-08  
a 2.574264445410889 2.062e-08 AU
q 2.106495858858484 1.5464e-07 AU
i 3.098714906296975 6.9357e-06 deg
node 347.845000843147 9.2317e-05 deg
peri 20.3093349898637 9.3903e-05 deg
M 286.9187336044459 2.2629e-05 deg
tp 2457106.753970724659
(2015-Mar-25.25397072)
9.742e-05 JED
period 1508.614107261616
4.13
1.8126e-05
4.963e-08
d
yr
n .2386296126140962 2.8672e-09 deg/d
Q 3.042033031963295 2.4367e-08 AU
  Orbit Determination Parameters
   # obs. used (total)      1108  
   data-arc span      7796 days (21.34 yr)  
   first obs. used      1992-03-03  
   last obs. used      2013-07-07  
   planetary ephem.      DE431  
   SB-pert. ephem.      SB431-BIG16  
   condition code      0  
   fit RMS      .55875  
   data source      ORB  
   producer      Otto Matic  
   solution date      2013-Aug-05 17:27:36  

Additional Information
 Earth MOID = 1.10436 AU 
 T_jup = 3.403 
[ show covariance matrix ]

Ephemeris | Orbit Diagram | Orbital Elements | Physical Parameters | Discovery Circumstances ]

Physical Parameter Table
Parameter Symbol Value Units Sigma Reference Notes
absolute magnitude H 13.8 mag n/a MPO266028  

13136 (1994 UJ1)          Discovered 1994-Oct-25 by Ueda, S., Kaneda, H. at Kushiro (399)
Reference: 20000124/Numbers.arcLast Updated: 2004-04-19

Alternate Designations
 1994 UJ1 = 1992 EW34 
Ephemeris | Orbit Diagram | Orbital Elements | Physical Parameters | Discovery Circumstances ]
ABOUT SSD CREDITS/AWARDS PRIVACY/COPYRIGHT GLOSSARY LINKS
FirstGov 2014-Apr-16 04:14 UT
(server date/time)  
NASA Home Page
Site Manager:   Donald K. Yeomans
Webmaster  Alan B. Chamberlin